DELTA 1 DEB (YO), 167

Orbit data source: Space-Track

DELTA 1 DEB (YO), 167 is space debris in LEO originally from a launch on Wed, 12 Jul 1961 UTC launched from the Air Force Eastern Test Range (AFETR). Debris objects in space refer to the collection of defunct objects orbiting the Earth. Examples of debris include non-operational satellites, rocket bodies, and fragments generated from explosions, collisions, or faulty payload assembly.

Loading next visibility...
Identifier
167, 1961-017D
Orbit
LEO
Country
Flag of USUS
Related business
Manufacturer
RCA/East Windsor
Mission
Spacecraft
Bus & Motor
Unknown
Mass
~1 kg wet, ~1 kg dry
Launch date (UTC)
1961-07-12 (65 years ago)
Launch vehicle
Unknown
Launch site
Air Force Eastern Test Range (AFETR)
Object type
Payload
Rocket body
Debris
Shape & HBR
Unknown shape, 0.1 m
Radar Cross Section
Small (<0.1 m²)

Expand to show TLE details & history
Last TLE update: 14 hours ago

TLE from 14 hours ago
0 DELTA 1 DEB (YO)
1 00167U 61017D   26123.34783563 -.00000067  00000-0  35319-4 0  9991
2 00167  47.8457 245.1762 0090639 287.9061  71.1956 14.24151687358282
Epoch: 2026-05-03T08:20Z
TLE epoch observation values (Epoch: 2026-05-03T08:20:52.998Z)
Latitude
-0°
Longitude
-101.29731°
Altitude
791.176 km
Speed
7.47 km/s
True Right ascension
16h 20m 42s
True Declination
0° 00' 00"
Sunlit
Object was in full shadow at epoch
Visualization orbit readout
Latitude
Unknown
Longitude
Unknown
Altitude
Unknown
Speed
Unknown
Apparent Right ascension
Unknown
Apparent Declination
Unknown
Sunlit
N/A
Visualization observer readout
Local Sidereal Time
06:05:24
Azimuth
Unknown
Elevation
Unknown
Doppler factor
Unknown
Orbital elements
Apogee altitude
877.601 km
Perigee altitude
747.252 km
Semi-major axis
7,190.564 km
Eccentricity
0.00906
Inclination
47.8457°
RAAN
245.1762°
Arg. of periapsis
287.9061°
True anomaly
72.18236°
Mean anomaly
71.1956°
Eccentric anomaly
71.68863°
Mean motion
3.55958 °/min
Orbital period
101.14 mins
BSTAR
0.000035319
Loading maneuver chart data...
Computing Atmospheric mass density...
Loading historical data...
Loading historical data...
Loading historical data...
Loading historical data...
Loading historical data...
Loading historical data...
Loading historical data...
Other satellites on launch #17 in the year 1961 (1961-07-12 UTC)

Documentation

Showing up to 5 results
|